Location: Burbank
(38.7788°N, 114.0429°W)
Time: 21:38:13
(UTC+00:00)

S-56A Canister/Altair - Pass Details

Date: 18 May 2026
Orbit: 632 x 2484 km, 38.9° (Epoch: 8 June)

Event Time Altitude Azimuth Distance (km) Brightness Sun altitude
Rises 06:41:09 0° 280° (W) 2,916 10.8 -30.4°
Reaches altitude 10° 06:43:20 10° 278° (W) 2,028 9.9 -30.5°
Enters shadow 06:43:47 13° 277° (W) 1,853 9.7 -30.5°
Maximum altitude 06:47:48 71° 194° (SSW) 749 - -30.7°
Drops below altitude 10° 06:53:24 10° 111° (ESE) 2,521 - -30.9°
Sets 06:56:23 0° 110° (ESE) 3,700 - -31.0°
